• In Hungary
  • List of Countries
  • For 7 days
  • Water Temperature
  • Satellite Maps
  • Weather Map
  • News
  • Weather Widgets
  • user-avatar
    Login

    Hourly Weather Quito

    Today, 14 December, Thursday

    Time Temperature Precipitation Wind Pressure Humidity
    00:00 +9°C° 0 mm 0 mps 535 mmHg 89%
    01:00 +9°C° 0 mm 1 mps 534 mmHg 88%
    02:00 +9°C° 0 mm 1 mps 534 mmHg 88%
    03:00 +9°C° 0 mm 1 mps 534 mmHg 87%
    04:00 +8°C° 0 mm 1 mps 534 mmHg 87%
    05:00 +9°C° 0 mm 1 mps 534 mmHg 85%
    06:00 +9°C° 0 mm 1 mps 534 mmHg 84%
    07:00 +9°C° 0 mm 1 mps 535 mmHg 82%
    08:00 +12°C° 0 mm 1 mps 536 mmHg 75%
    09:00 +14°C° 0 mm 1 mps 538 mmHg 68%
    10:00 +16°C° 0 mm 2 mps 539 mmHg 61%
    11:00 +17°C° 0.1 mm 2 mps 539 mmHg 62%
    12:00 +17°C° 0.1 mm 2 mps 538 mmHg 64%
    13:00 +17°C° 0.1 mm 2 mps 538 mmHg 65%
    14:00 +16°C° 0.2 mm 2 mps 537 mmHg 71%
    15:00 +15°C° 0.2 mm 2 mps 536 mmHg 77%
    16:00 +14°C° 0.2 mm 2 mps 535 mmHg 83%
    17:00 +13°C° 0.2 mm 1 mps 535 mmHg 87%
    18:00 +13°C° 0.2 mm 1 mps 535 mmHg 91%
    19:00 +12°C° 0.2 mm 1 mps 535 mmHg 95%
    20:00 +12°C° 0.1 mm 1 mps 535 mmHg 95%
    21:00 +11°C° 0.1 mm 1 mps 535 mmHg 95%
    22:00 +11°C° 0.1 mm 1 mps 536 mmHg 95%
    23:00 +11°C° 0.1 mm 1 mps 535 mmHg 95%

    Tomorrow, 15 December, Friday

    Time Temperature Precipitation Wind Pressure Humidity
    00:00 +10°C° 0.1 mm 1 mps 535 mmHg 94%
    01:00 +10°C° 0.1 mm 1 mps 535 mmHg 94%
    02:00 +10°C° 0.1 mm 1 mps 535 mmHg 94%
    03:00 +10°C° 0.1 mm 1 mps 534 mmHg 94%
    04:00 +10°C° 0.1 mm 1 mps 534 mmHg 94%
    05:00 +10°C° 0.1 mm 1 mps 534 mmHg 93%
    06:00 +10°C° 0.1 mm 1 mps 535 mmHg 92%
    07:00 +10°C° 0.1 mm 1 mps 535 mmHg 91%
    08:00 +12°C° 0 mm 1 mps 536 mmHg 84%
    09:00 +13°C° 0 mm 1 mps 537 mmHg 77%
    10:00 +15°C° 0 mm 2 mps 538 mmHg 69%
    11:00 +16°C° 0.1 mm 2 mps 538 mmHg 69%
    12:00 +16°C° 0.1 mm 2 mps 538 mmHg 68%
    13:00 +17°C° 0.1 mm 2 mps 538 mmHg 68%
    14:00 +16°C° 0.1 mm 2 mps 537 mmHg 72%
    15:00 +15°C° 0.1 mm 2 mps 536 mmHg 76%
    16:00 +14°C° 0.1 mm 2 mps 535 mmHg 80%
    17:00 +13°C° 0.2 mm 1 mps 535 mmHg 85%
    18:00 +12°C° 0.2 mm 1 mps 535 mmHg 89%
    19:00 +10°C° 0.2 mm 0 mps 534 mmHg 94%
    20:00 +10°C° 0 mm 0 mps 535 mmHg 94%
    21:00 +10°C° 0 mm 1 mps 535 mmHg 94%
    22:00 +10°C° 0 mm 1 mps 535 mmHg 94%
    23:00 +10°C° 0 mm 1 mps 535 mmHg 94%

    Day after tomorrow, 16 December, Saturday

    Time Temperature Precipitation Wind Pressure Humidity
    00:00 +9°C° 0 mm 1 mps 535 mmHg 93%
    01:00 +9°C° 0 mm 1 mps 534 mmHg 93%
    02:00 +9°C° 0 mm 1 mps 534 mmHg 92%
    03:00 +9°C° 0 mm 1 mps 533 mmHg 91%
    04:00 +9°C° 0 mm 1 mps 533 mmHg 91%
    05:00 +9°C° 0 mm 1 mps 533 mmHg 88%
    06:00 +9°C° 0 mm 1 mps 534 mmHg 86%
    07:00 +10°C° 0 mm 1 mps 534 mmHg 84%
    08:00 +12°C° 0 mm 1 mps 536 mmHg 75%
    09:00 +15°C° 0 mm 1 mps 538 mmHg 67%
    10:00 +17°C° 0 mm 2 mps 539 mmHg 58%
    11:00 +17°C° 0.1 mm 2 mps 539 mmHg 61%
    12:00 +17°C° 0.1 mm 2 mps 538 mmHg 64%
    13:00 +16°C° 0.1 mm 2 mps 537 mmHg 66%
    14:00 +15°C° 0.2 mm 2 mps 536 mmHg 72%
    15:00 +14°C° 0.2 mm 2 mps 535 mmHg 78%
    16:00 +13°C° 0.2 mm 2 mps 534 mmHg 84%
    17:00 +13°C° 0.1 mm 1 mps 534 mmHg 88%
    18:00 +12°C° 0.1 mm 1 mps 534 mmHg 92%
    19:00 +11°C° 0.1 mm 1 mps 534 mmHg 95%
    20:00 +11°C° 0.1 mm 1 mps 534 mmHg 95%
    21:00 +11°C° 0.1 mm 1 mps 535 mmHg 95%
    22:00 +10°C° 0.1 mm 1 mps 535 mmHg 95%
    23:00 +10°C° 0.1 mm 1 mps 535 mmHg 95%

    17 December, Sunday

    Time Temperature Precipitation Wind Pressure Humidity
    00:00 +10°C° 0.1 mm 1 mps 534 mmHg 94%
    01:00 +10°C° 0.1 mm 1 mps 534 mmHg 94%
    02:00 +9°C° 0.1 mm 1 mps 534 mmHg 93%
    03:00 +9°C° 0.1 mm 1 mps 533 mmHg 93%
    04:00 +9°C° 0.1 mm 1 mps 533 mmHg 92%
    05:00 +9°C° 0.1 mm 1 mps 533 mmHg 90%
    06:00 +10°C° 0.1 mm 1 mps 534 mmHg 88%
    07:00 +10°C° 0.1 mm 1 mps 534 mmHg 86%
    08:00 +12°C° 0 mm 1 mps 536 mmHg 80%
    09:00 +14°C° 0 mm 1 mps 537 mmHg 74%
    10:00 +16°C° 0 mm 2 mps 538 mmHg 68%
    11:00 +16°C° 0.1 mm 2 mps 538 mmHg 68%
    12:00 +16°C° 0.1 mm 2 mps 538 mmHg 69%
    13:00 +17°C° 0.1 mm 2 mps 537 mmHg 70%
    14:00 +16°C° 0.1 mm 2 mps 536 mmHg 74%
    15:00 +15°C° 0.1 mm 2 mps 535 mmHg 78%
    16:00 +14°C° 0.1 mm 2 mps 534 mmHg 82%
    17:00 +13°C° 0.2 mm 1 mps 534 mmHg 86%
    18:00 +12°C° 0.2 mm 1 mps 534 mmHg 91%
    19:00 +11°C° 0.2 mm 1 mps 534 mmHg 95%
    20:00 +11°C° 0.1 mm 1 mps 534 mmHg 94%
    21:00 +10°C° 0.1 mm 1 mps 534 mmHg 92%
    22:00 +9°C° 0.1 mm 1 mps 534 mmHg 90%
    23:00 +9°C° 0.1 mm 1 mps 534 mmHg 88%

    18 December, Monday

    Time Temperature Precipitation Wind Pressure Humidity
    00:00 +9°C° 0.1 mm 1 mps 534 mmHg 85%
    01:00 +9°C° 0.1 mm 1 mps 533 mmHg 83%
    02:00 +9°C° 0.1 mm 1 mps 533 mmHg 84%
    03:00 +9°C° 0.1 mm 1 mps 533 mmHg 85%
    04:00 +9°C° 0.1 mm 1 mps 533 mmHg 87%
    05:00 +9°C° 0 mm 1 mps 533 mmHg 85%
    06:00 +9°C° 0 mm 1 mps 534 mmHg 84%
    07:00 +9°C° 0 mm 1 mps 534 mmHg 83%
    08:00 +12°C° 0 mm 2 mps 536 mmHg 72%
    09:00 +14°C° 0 mm 2 mps 537 mmHg 61%
    10:00 +16°C° 0 mm 2 mps 539 mmHg 50%
    11:00 +17°C° 0 mm 2 mps 538 mmHg 51%
    12:00 +17°C° 0 mm 2 mps 538 mmHg 53%
    13:00 +17°C° 0 mm 2 mps 537 mmHg 55%
    14:00 +17°C° 0.1 mm 2 mps 537 mmHg 59%
    15:00 +16°C° 0.1 mm 2 mps 536 mmHg 63%
    16:00 +15°C° 0.1 mm 2 mps 535 mmHg 68%
    17:00 +14°C° 0.1 mm 2 mps 535 mmHg 74%
    18:00 +12°C° 0.1 mm 1 mps 534 mmHg 81%
    19:00 +10°C° 0.1 mm 1 mps 534 mmHg 88%
    20:00 +10°C° 0.1 mm 1 mps 534 mmHg 87%
    21:00 +10°C° 0.1 mm 1 mps 535 mmHg 87%
    22:00 +9°C° 0.1 mm 1 mps 535 mmHg 87%
    23:00 +9°C° 0.1 mm 1 mps 534 mmHg 87%

    19 December, Tuesday

    Time Temperature Precipitation Wind Pressure Humidity
    00:00 +9°C° 0.1 mm 1 mps 534 mmHg 87%
    01:00 +8°C° 0.1 mm 1 mps 534 mmHg 87%
    02:00 +8°C° 0.1 mm 1 mps 533 mmHg 87%
    03:00 +8°C° 0.1 mm 1 mps 533 mmHg 87%
    04:00 +8°C° 0.1 mm 1 mps 533 mmHg 87%
    05:00 +8°C° 0 mm 1 mps 533 mmHg 85%
    06:00 +9°C° 0 mm 1 mps 534 mmHg 82%
    07:00 +9°C° 0 mm 1 mps 534 mmHg 80%
    08:00 +12°C° 0 mm 2 mps 536 mmHg 72%
    09:00 +14°C° 0 mm 2 mps 537 mmHg 65%
    10:00 +16°C° 0 mm 2 mps 539 mmHg 58%
    11:00 +16°C° 0.1 mm 2 mps 538 mmHg 62%
    12:00 +16°C° 0.1 mm 2 mps 537 mmHg 67%
    13:00 +15°C° 0.1 mm 2 mps 536 mmHg 72%
    14:00 +14°C° 0.3 mm 2 mps 536 mmHg 76%
    15:00 +14°C° 0.3 mm 2 mps 535 mmHg 81%
    16:00 +13°C° 0.3 mm 1 mps 534 mmHg 85%
    17:00 +12°C° 0.2 mm 1 mps 534 mmHg 88%
    18:00 +12°C° 0.2 mm 1 mps 534 mmHg 91%
    19:00 +11°C° 0.2 mm 1 mps 534 mmHg 94%
    20:00 +11°C° 0.2 mm 1 mps 535 mmHg 93%
    21:00 +10°C° 0.2 mm 1 mps 535 mmHg 93%
    22:00 +10°C° 0.2 mm 1 mps 535 mmHg 93%
    23:00 +10°C° 0.2 mm 1 mps 535 mmHg 93%
    Show more